sat.trackr.live / text

‹ back to catalog

STARLINK-35691

NORAD 66404 · 2025-257AA

PAYLOAD ACTIVE UNKNOWN

§ Identity

Operator
Country
US
Launch date
2025-11-09
Launch site
AFETR
Launch vehicle
Mass (kg)
RCS (m²)

Purposes: comms

External: N2YO · Heavens-Above · Gunter

§ Orbital elements

Epoch: 2026-05-25T05:20:23.008992Z

Period
93.85 min
Inclination
53.1583°
Eccentricity
0.0001313
Mean motion
15.34414274 rev/d
Perigee alt
461.8 km
Apogee alt
463.6 km
Semi-major
6,840.8 km
B*
7.5437e-4
RAAN
220.6373°
Arg perigee
70.2098°
Mean anomaly
289.9046°
Rev number
3,146

§ Raw data

STARLINK-356911 66404U 25257AA  26145.22248853  .00025208  00000+0  75437-3 0  99982 66404  53.1583 220.6373 0001313  70.2098 289.9046 15.34414274 31461

JSON: /api/v1/satellites/66404 · /tle

For live sub-satellite position, see the globe view (requires WebGL).

§ Visibility from observer

Set your observer location to see the next 7 days of passes ≥ 10°. The values pass through the URL so the page stays shareable.

No JS? Fill the form by hand. The geolocation button needs JavaScript.